Tracking 34408 objects as of 13-Jun-2026
HD Live streaming from Space Station
objects crossing your sky now

ACTS

Track ACTS now!
ACTS is classified as:


NORAD ID: 22796
Int'l Code: 1993-058B
Perigee: 35,564.0 km
Apogee: 36,023.1 km
Inclination: 14.6 °
Period: 1,436.1 minutes
Semi major axis: 42164 km
RCS: 21.8582 m2 (large)
Launch date: September 12, 1993
Source: United States (US)
Launch site: AIR FORCE EASTERN TEST RANGE (AFETR)
Your satellite tracking list
Your tracking list is empty




NASA's NSSDC Master Catalog

Two Line Element Set (TLE):
1 22796U 93058B   26164.02818271 -.00000107  00000-0  00000-0 0  9998
2 22796  14.5737 355.6090 0054438  81.1080  88.7429  1.00272544126861
Source of the keplerian elements: AFSPC